#timestamp,LO_Frequency,Hit,StdDev 
1542088815.7,286047000.3,P
1542088835.5,286047002.6,N
1542088855.4,286047001.7,N
1542088875.2,286047005.5,N
1542088895.1,286047003.4,N
1542088896.0,286047003.4,N
1542088915.8,286047003.6,N
1542088935.6,286047004.1,N
1542088955.5,286047004.3,N
1542088975.3,286047003.2,N
1542088995.1,286047003.8,N
1542089015.9,286047001.4,N
1542089035.7,286047005.8,N
1542089055.6,286047008.2,Y
1542089075.4,286047005.5,P
1542089095.2,286047003.7,N
1542089115.1,286047001.3,N
1542089116.0,286047001.3,N
1542089135.8,286047003.3,N
1542089155.6,286047003.1,N
1542089175.5,286047003.4,N
1542089195.3,286047005.1,Y
1542089215.2,286047000.0,P
1542089235.9,286046999.9,N
1542089255.7,286046999.7,N
1542089275.6,286047000.9,N
1542089295.4,286047000.6,N
1542089315.3,286047000.2,N
1542089335.1,286047000.1,N
1542089336.0,286047000.1,N
1542089355.8,286047001.2,N
1542089375.7,286047000.7,N
1542089395.5,286046999.1,N
1542089415.3,286046999.5,N
1542089435.2,286046998.4,N
1542089455.0,286046998.2,N
1542089455.9,286046998.2,N
1542089475.8,286047000.4,N
1542089495.6,286047003.9,Y
1542089515.4,286047001.3,P
1542089535.3,286047004.4,P
1542089555.1,286047001.8,N
1542089575.9,286047004.3,N
1542089595.7,286047000.3,N
1542089615.5,286046998.7,N
1542089635.4,286046998.6,N
1542089655.2,286047001.1,N
1542089675.0,286046998.8,N
1542089676.0,286046998.8,N
1542089695.8,286046998.5,N
1542089715.6,286047001.1,N
1542089735.5,286047000.2,N
1542089755.3,286047000.4,N
1542089775.1,286047000.8,N
1542089795.9,286047002.4,N
1542089815.7,286046999.9,N
1542089835.6,286047002.5,N
1542089855.4,286047001.8,N
1542089875.2,286047001.4,N
1542089895.1,286047003.8,N
1542089896.0,286047003.8,N
1542089915.8,286047004.0,N
1542089935.6,286047002.0,N
1542089955.5,286047004.4,N
1542089975.3,286047004.4,N
1542089995.1,286047004.4,N
1542090015.9,286047004.2,N
1542090035.7,286047005.8,N
1542090055.6,286047007.0,Y
1542090075.4,286047005.4,P
1542090095.2,286047004.7,N
1542090115.1,286047005.0,P
1542090116.0,286047005.0,Y
1542090135.8,286047001.5,P
1542090155.7,286047004.4,P
1542090175.5,286047004.3,P
1542090195.3,286047005.7,Y
1542090215.2,286046998.2,P
1542090235.0,286047001.0,N
1542090235.9,286047001.0,N
1542090255.7,286046998.1,N
1542090275.6,286047000.9,N
1542090295.4,286047000.7,N
1542090315.3,286047000.5,N
1542090335.1,286047002.0,N
1542090336.0,286047002.0,N
1542090355.8,286047001.5,N
1542090375.7,286047002.1,N
1542090395.5,286047003.9,N
1542090415.3,286047002.1,N
1542090435.2,286047001.9,N
1542090455.0,286047002.3,N
1542090455.9,286047002.3,N
1542090475.8,286046999.7,N
1542090495.6,286047001.4,N
1542090515.4,286047004.2,N
1542090535.3,286047003.6,N
1542090555.1,286047001.5,N
1542090575.8,286047003.8,N
1542090595.7,286047003.4,N
1542090615.5,286047006.7,Y
1542090635.4,286047007.3,P
1542090655.2,286047008.9,P
1542090675.0,286047008.1,N
1542090675.9,286047008.1,N
1542090695.8,286047009.2,Y
1542090715.6,286047000.5,P
1542090735.5,286046999.7,N
1542090755.3,286046999.9,N
1542090775.1,286047000.2,N
1542090795.9,286047003.6,N
1542090815.7,286047003.0,N
1542090835.5,286047002.9,N
1542090855.4,286047003.4,N
1542090875.2,286047003.4,N
1542090895.1,286047004.4,N
1542090896.0,286047004.4,N
1542090915.8,286047005.6,N
1542090935.6,286047005.0,N
1542090955.5,286047003.6,N
1542090975.3,286047004.1,N
1542090995.1,286047004.0,N
1542091015.9,286047001.7,N
1542091035.7,286047005.9,Y
1542091055.6,286047004.2,P
1542091075.4,286047003.3,P
1542091095.2,286047005.4,P
1542091115.1,286047007.2,Y
1542091116.0,286047007.2,P
1542091135.8,286047001.6,N
1542091155.6,286047002.5,N
1542091175.5,286047001.0,N
1542091195.3,286046998.2,N
1542091215.2,286046998.3,N
1542091235.9,286046998.3,N
1542091255.7,286046998.3,N
1542091275.6,286047001.2,N
1542091295.4,286047011.9,Y
1542091315.2,286046996.7,P
1542091335.1,286046996.9,N
1542091336.0,286046996.9,N
1542091355.8,286046997.7,N
1542091375.7,286046995.0,Y
1542091395.5,286047001.0,P
1542091415.3,286047002.7,N
1542091435.2,286047001.7,N
1542091455.0,286047005.5,Y
1542091455.9,286047005.5,P
1542091475.8,286047004.0,N
1542091495.6,286047003.8,N
1542091515.4,286047004.0,N
1542091535.3,286047001.4,N
1542091555.1,286047003.6,N
1542091575.8,286047001.9,N
1542091595.7,286047005.5,Y
1542091615.5,286047002.6,P
1542091635.4,286047003.1,P
1542091655.2,286047003.9,P
1542091675.0,286047004.4,Y
1542091675.9,286047004.4,P
1542091695.8,286046998.9,N
1542091715.6,286046999.4,N
1542091735.4,286046998.5,N
1542091755.3,286046999.9,N
1542091775.1,286047002.2,N
1542091795.9,286047000.7,N
1542091815.7,286046999.8,N
1542091835.5,286047002.0,N
1542091855.4,286047004.2,N
1542091875.2,286047004.9,N
1542091895.0,286047006.8,Y
1542091895.9,286047006.8,P
1542091915.8,286047005.1,N
1542091935.6,286047004.5,N
1542091955.5,286047005.7,N
1542091975.3,286047005.7,Y
1542091995.1,286046998.1,P
1542092015.9,286047000.9,N
1542092035.7,286047000.9,N
1542092055.5,286046998.3,N
1542092075.4,286047000.6,N
1542092095.2,286046997.0,N
1542092115.1,286046995.5,N
1542092116.0,286046995.5,N
1542092135.8,286046998.8,N
1542092155.6,286046997.3,N
1542092175.5,286046996.2,N
1542092195.3,286046995.6,N
1542092215.1,286046997.6,N
1542092235.9,286046996.0,N
1542092255.7,286046995.4,N
1542092275.6,286046995.4,N
1542092295.4,286046993.5,N
1542092315.2,286046992.0,Y
1542092335.1,286046994.2,P
1542092336.0,286046994.2,P
1542092355.8,286046992.9,P
1542092375.6,286046994.1,Y
1542092395.5,286047000.6,P
